[[{"header":{"parameterUnit":"m.s-1","parameterCategory":1,"la1":30.2991,"la2":30.254,"lo1":-89.0895,"lo2":-89.0444,"dy":0.0017,"dx":0.0017,"nx":28,"ny":28,"refTime":"2024-08-03T09:00:00:Z","depth":0,"parameterNumber":2,"parameterNumberName":"U-component_of_WINDS"},"data":[0,0,0,0,0,0,0,0,0,0,0,0,0,0,0,0,0,0,0,0,0,0,0,0,0,0,0,0,0,0,0,0,0,0,0,0,0,0,0,0,0,0,0,0,0,0,0,0,0,0,0,0,0,0,0,0,0,0,-5.9096,-5.9099,0,-5.933,-5.9333,-5.9335,-5.9318,-5.9314,-5.9311,-5.9308,-5.9544,-5.9553,-5.9562,0,0,0,0,0,0,0,0,0,0,0,0,0,-5.863,-5.8638,-5.9096,-5.9099,-5.9102,-5.933,-5.9333,-5.9336,-5.9318,-5.9314,-5.931,-5.9306,-5.954,-5.9552,-5.9563,0,0,0,0,0,0,0,0,0,0,0,0,0,-5.8845,-5.8641,-5.9096,-5.9121,-5.9125,-5.9329,-5.9333,-5.9337,-5.9319,-5.9314,-5.9309,-5.9304,-5.9537,-5.9551,-5.9565,-5.9757,0,0,-5.9608,-5.9615,0,0,0,0,0,0,0,0,-5.8832,-5.8862,-5.9114,-5.9119,-5.9125,-5.9289,-5.9255,-5.9478,-5.9321,-5.9246,-5.9307,-5.9301,-5.9463,-5.9483,-5.9538,-5.9768,-5.9779,-5.961,-5.9618,-5.9624,-5.9628,0,0,0,0,0,0,0,-5.8818,-5.8852,-5.9189,-5.9118,-5.9124,-5.9119,-5.9143,-5.9297,-5.9381,-5.9252,-5.9251,-5.9279,-5.9465,-5.9525,-5.9544,-5.9782,-5.9609,-5.9622,-5.9631,-5.9636,-6.0178,-6.0183,0,0,0,0,0,0,-5.8798,-5.8839,-5.9181,-5.9196,-5.8963,-5.9131,-5.9159,-5.9242,-5.9379,-5.9395,-5.9283,-5.9277,-5.9503,-5.9527,-5.9552,-5.9784,-5.9624,-5.9638,-5.9646,-6.0172,-6.0179,-6.0185,0,0,0,0,0,0,-5.8788,-5.8828,-5.9172,-5.9017,-5.9061,-5.9145,-5.9238,-5.9249,-5.9309,-5.9403,-5.9417,-5.9329,-5.95,-5.9532,-5.9706,-5.9791,-5.9644,-5.9657,-6.0165,-6.0174,-6.0182,-6.025,0,0,0,0,0,0,-5.8774,-5.8825,-5.89,-5.9019,-5.9069,-5.9323,-5.9244,-5.9258,-5.9334,-5.9328,-5.945,-5.9465,-5.9498,-5.9684,-5.972,-5.9808,-5.9668,-6.0158,-6.0169,-6.018,-6.024,-6.026,-6.0277,0,0,0,0,0,-5.8758,-5.891,-5.8904,-5.8946,-5.9165,-5.9329,-5.9357,-5.9393,-5.9341,-5.9416,-5.9476,-5.9461,-5.9777,-5.9702,-5.9742,-5.9836,-6.0153,-6.0166,-6.0179,-6.0232,-6.0256,-6.0276,0,0,0,0,0,0,-5.8799,-5.8926,-5.8921,-5.9117,-5.9212,-5.9325,-5.9422,-5.9417,-5.9528,-5.9519,-5.9558,-5.9585,-5.9759,-5.9816,-5.973,-6.0028,-5.9958,-5.9979,-5.9985,-6.0008,-6.0026,-6.0007,-5.968,0,0,0,0,0,-5.8831,-5.8954,-5.9058,-5.9221,-5.9269,-5.9337,-5.941,-5.9429,-5.9529,-5.9568,-5.9641,-5.9737,-5.9858,-5.9937,-6.0053,-6.0249,-6.0273,-6.0333,-6.0351,-6.0366,-6.0383,-6.0487,-6.0514,-6.0228,-6.0228,-6.0228,0,0,-5.8897,-5.8982,-5.9058,-5.9231,-5.9307,-5.9431,-5.9371,-5.9506,-5.9598,-5.9589,-5.9757,-5.9814,-5.9923,-6.0108,-6.0193,-6.016,-6.0468,-6.0382,-6.0393,-6.0403,-6.0503,-6.053,-6.0554,-6.0237,-6.0236,-6.0234,0,0,-5.9082,-5.9161,-5.9303,-5.938,-5.9496,-5.954,-5.9574,-5.9688,-5.9725,-5.9895,-5.9889,-5.9998,-6.0207,-6.0284,-6.035,-6.0562,-6.0551,-6.0599,-6.0693,-6.0794,-6.0816,-6.0836,-6.0909,-6.0934,-6.0617,-6.0617,-6.0617,0,-5.915,-5.9339,-5.9376,-5.9512,-5.9587,-5.9585,-5.9727,-5.98,-5.9947,-5.9998,-5.996,-6.0219,-6.0293,-6.0494,-6.0545,-6.06,-6.0638,-6.0584,-6.081,-6.0831,-6.085,-6.0919,-6.0947,-6.0622,-6.0621,-6.0621,-6.062,0,-5.9415,-5.9546,-5.9647,-5.9789,-5.9876,-6.0015,-6.007,-6.0153,-6.0165,-6.0212,-6.0383,-6.0471,-6.0604,-6.0654,-6.0667,-6.0856,-6.0832,-6.0802,-6.0731,-6.0881,-6.0947,-6.0974,-6.0629,-6.0627,-6.0625,-6.0624,0,0,-5.9632,-5.9792,-5.9828,-5.9891,-6.0018,-6.0119,-6.0256,-6.0387,-6.0455,-6.0557,-6.0671,-6.0846,-6.0818,-6.0893,-6.0915,-6.1004,-6.1162,-6.0963,-6.0966,-6.0994,-6.1372,-6.1392,-6.1422,-6.1156,-6.1161,-6.1166,-6.1362,0,-5.9827,-6.0072,-6.0108,-6.0322,-6.0441,-6.044,-6.0559,-6.0648,-6.0696,-6.0802,-6.0855,-6.0977,-6.0933,-6.0978,-6.1066,-6.1124,-6.1238,-6.1111,-6.126,-6.1264,-6.1229,-6.1457,-6.1479,-6.166,-6.1388,-6.1392,-6.1396,0,-6.0088,-6.0196,-6.0422,-6.0529,-6.0581,-6.0687,-6.0808,-6.0911,-6.1011,-6.1039,-6.1123,-6.1133,-6.1272,-6.1198,-6.1389,-6.1301,-6.1364,-6.1402,-6.141,-6.1423,-6.1337,-6.1473,-6.1719,-6.1745,-6.1437,-6.1434,-6.1431,0,-6.0219,-6.0421,-6.0581,-6.0636,-6.0767,-6.0841,-6.0898,-6.0994,-6.1069,-6.1174,-6.1222,-6.1343,-6.1408,-6.15,-6.1541,-6.1483,-6.1728,-6.1658,-6.1753,-6.1752,-6.1803,-6.1798,-6.2059,-6.1849,-6.1848,-6.1848,-6.1847,0,-6.0431,-6.0569,-6.0642,-6.074,-6.0893,-6.0933,-6.1082,-6.1137,-6.1222,-6.1329,-6.1336,-6.1436,-6.1486,-6.1593,-6.1627,-6.1778,-6.1808,-6.1833,-6.1839,-6.1831,-6.1827,-6.187,-6.1858,-6.1855,-6.1853,-6.1852,-6.1851,0,-6.0603,-6.0658,-6.0832,-6.0941,-6.0971,-6.1079,-6.1171,-6.1265,-6.1312,-6.1447,-6.1481,-6.1554,-6.1681,-6.1731,-6.1886,-6.1908,-6.2081,-6.208,-6.2047,-6.2049,-6.214,-6.2129,-6.2435,-6.2476,-6.2241,-6.2243,-6.2245,0,-6.0733,-6.0839,-6.0958,-6.1031,-6.1091,-6.1208,-6.1284,-6.1327,-6.1406,-6.1527,-6.1606,-6.1732,-6.1835,-6.2037,-6.2102,-6.222,-6.2219,-6.2318,-6.2237,-6.2224,-6.2217,-6.2209,-6.2218,-6.2332,-6.2335,-6.2337,-6.2338,0,-6.0957,-6.0979,-6.1089,-6.1209,-6.1299,-6.1396,-6.1489,-6.1548,-6.1604,-6.1692,-6.1821,-6.1901,-6.2059,-6.2183,-6.2304,-6.2361,-6.2358,-6.2364,-6.2391,-6.2382,-6.2357,-6.2368,-6.2085,-6.2356,-6.2354,-6.2353,-6.2352,-6.2351,-6.111,-6.1203,-6.1301,-6.1422,-6.1497,-6.1584,-6.1677,-6.1735,-6.1844,-6.1975,-6.1994,-6.2131,-6.2226,-6.2388,-6.2451,-6.2558,-6.2532,-6.2573,-6.2583,-6.2591,-6.2596,-6.2343,-6.258,-6.258,-6.2579,-6.2579,-6.2579,0,-6.1332,-6.1395,-6.1506,-6.1636,-6.1731,-6.1722,-6.1824,-6.1904,-6.2025,-6.2114,-6.2215,-6.2362,-6.2482,-6.2557,-6.2677,-6.2748,-6.275,-6.2778,-6.2772,-6.2784,-6.2614,-6.2576,-6.2775,-6.2775,-6.2775,-6.2775,-6.2775,-6.2775,-6.1458,-6.1613,-6.1646,-6.1836,-6.1898,-6.2033,-6.2092,-6.2171,-6.2242,-6.2406,-6.2506,-6.2554,-6.2637,-6.2763,-6.2872,-6.289,-6.2933,-6.2963,-6.2979,-6.2817,-6.2797,-6.2777,-6.2742,-6.2972,-6.2973,-6.314,-6.3142,-6.3143]},{"header":{"parameterUnit":"m.s-1","parameterCategory":1,"la1":30.2991,"la2":30.254,"lo1":-89.0895,"lo2":-89.0444,"dy":0.0017,"dx":0.0017,"nx":28,"ny":28,"refTime":"2024-08-03T09:00:00:Z","depth":0,"parameterNumber":3,"parameterNumberName":"V-component_of_WINDS"},"data":[0,0,0,0,0,0,0,0,0,0,0,0,0,0,0,0,0,0,0,0,0,0,0,0,0,0,0,0,0,0,0,0,0,0,0,0,0,0,0,0,0,0,0,0,0,0,0,0,0,0,0,0,0,0,0,0,0,0,0.8503,0.8502,0,0.8402,0.8401,0.84,0.8381,0.8382,0.8383,0.8384,0.8267,0.8263,0.8259,0,0,0,0,0,0,0,0,0,0,0,0,0,0.8671,0.8668,0.8504,0.8502,0.8501,0.8402,0.8401,0.8399,0.8381,0.8382,0.8383,0.8384,0.8268,0.8263,0.8259,0,0,0,0,0,0,0,0,0,0,0,0,0,0.8586,0.8667,0.8504,0.848,0.8477,0.8402,0.8401,0.8399,0.8381,0.8382,0.8383,0.8384,0.827,0.8264,0.8258,0.8196,0,0,0.824,0.8238,0,0,0,0,0,0,0,0,0.8591,0.858,0.8485,0.8482,0.8478,0.8406,0.8417,0.833,0.838,0.8417,0.8384,0.8385,0.8311,0.8302,0.828,0.819,0.8185,0.824,0.8236,0.8234,0.8232,0,0,0,0,0,0,0,0.8597,0.8584,0.8463,0.8484,0.8479,0.8471,0.8461,0.84,0.8357,0.8414,0.8412,0.8401,0.8309,0.8285,0.8277,0.8184,0.824,0.8235,0.8231,0.8229,0.8038,0.8036,0,0,0,0,0,0,0.8609,0.859,0.8466,0.846,0.854,0.8467,0.8455,0.8427,0.8358,0.8349,0.84,0.8401,0.8295,0.8284,0.8272,0.8195,0.8234,0.8228,0.8225,0.8039,0.8037,0.8036,0,0,0,0,0,0,0.8613,0.8598,0.847,0.8524,0.8508,0.8463,0.8432,0.8425,0.8401,0.8348,0.8339,0.8384,0.8295,0.8281,0.8216,0.8191,0.8225,0.822,0.8041,0.8039,0.8037,0.8039,0,0,0,0,0,0,0.8617,0.86,0.8578,0.8524,0.8505,0.8419,0.843,0.8422,0.8392,0.8392,0.8331,0.8322,0.8295,0.8225,0.821,0.8183,0.8215,0.8043,0.804,0.8037,0.8041,0.8038,0.8034,0,0,0,0,0,0.8623,0.858,0.8577,0.8562,0.8477,0.8417,0.8406,0.838,0.839,0.8366,0.8333,0.8324,0.8196,0.8218,0.8202,0.8172,0.8044,0.8041,0.8038,0.8043,0.8038,0.8034,0,0,0,0,0,0,0.8627,0.8572,0.8568,0.8507,0.8468,0.8415,0.8384,0.8376,0.8329,0.833,0.8296,0.8283,0.8219,0.8189,0.8215,0.8108,0.8121,0.8114,0.813,0.8126,0.8122,0.813,0.8211,0,0,0,0,0,0.8621,0.8581,0.8534,0.8484,0.8465,0.8428,0.8401,0.8385,0.8341,0.8323,0.8284,0.8238,0.8188,0.8155,0.8106,0.8038,0.8023,0.8009,0.8006,0.8003,0.7997,0.7957,0.795,0.8024,0.8024,0.8024,0,0,0.8607,0.8573,0.8548,0.8484,0.8451,0.8407,0.8414,0.8366,0.8332,0.8314,0.8252,0.8222,0.8168,0.8102,0.807,0.8074,0.7973,0.7999,0.7997,0.7992,0.7953,0.7946,0.794,0.8022,0.8022,0.8023,0,0,0.856,0.853,0.8486,0.8455,0.8407,0.8383,0.8373,0.8322,0.8303,0.8241,0.8227,0.8183,0.8098,0.8061,0.803,0.7971,0.796,0.7956,0.7936,0.7898,0.7893,0.7887,0.7865,0.7857,0.795,0.795,0.795,0,0.8547,0.8484,0.8463,0.8417,0.8388,0.8375,0.8328,0.8297,0.8234,0.8213,0.822,0.8114,0.8077,0.8001,0.7987,0.7964,0.7948,0.7962,0.7896,0.789,0.7885,0.7863,0.7855,0.795,0.795,0.795,0.795,0,0.847,0.8426,0.8395,0.8341,0.8308,0.8262,0.8231,0.82,0.8187,0.8162,0.8098,0.8054,0.7996,0.7977,0.7962,0.7899,0.7903,0.7904,0.7915,0.7878,0.7857,0.7848,0.7949,0.7949,0.7949,0.795,0,0,0.8419,0.8356,0.8345,0.832,0.8268,0.8231,0.8184,0.8132,0.8105,0.8063,0.802,0.7949,0.795,0.7916,0.7897,0.7864,0.7819,0.7868,0.7867,0.786,0.7745,0.7744,0.7735,0.7813,0.7811,0.781,0.7749,0,0.8364,0.8283,0.8264,0.8193,0.8151,0.8139,0.8097,0.8059,0.8034,0.7992,0.7963,0.7914,0.7919,0.7899,0.7866,0.7832,0.7795,0.7836,0.7769,0.7767,0.7782,0.7724,0.7723,0.7668,0.7741,0.774,0.7739,0,0.8289,0.825,0.8176,0.8131,0.8113,0.8076,0.8027,0.7988,0.7944,0.7928,0.7892,0.7877,0.7823,0.784,0.7764,0.7792,0.7764,0.7743,0.774,0.7731,0.7749,0.7712,0.765,0.7641,0.7726,0.7727,0.7728,0,0.8258,0.8186,0.8133,0.8112,0.8059,0.8033,0.8008,0.7966,0.7936,0.7892,0.7872,0.7821,0.7792,0.7751,0.7721,0.7736,0.7648,0.7661,0.763,0.7631,0.761,0.7611,0.754,0.7595,0.7595,0.7595,0.7595,0,0.8198,0.8152,0.8119,0.8086,0.8035,0.8012,0.796,0.7935,0.7898,0.7857,0.7843,0.7804,0.7768,0.7724,0.77,0.764,0.7627,0.761,0.7604,0.7611,0.7613,0.759,0.7592,0.7593,0.7593,0.7594,0.7594,0,0.8153,0.8129,0.807,0.8026,0.8014,0.7978,0.7938,0.7903,0.788,0.7829,0.7815,0.7776,0.7723,0.7691,0.7622,0.7606,0.754,0.7536,0.7556,0.7553,0.7523,0.7526,0.7433,0.7419,0.7485,0.7485,0.7484,0,0.8115,0.8081,0.8035,0.8009,0.7986,0.7943,0.7914,0.789,0.786,0.7808,0.7779,0.7727,0.7684,0.7599,0.7562,0.751,0.7503,0.7474,0.7494,0.7502,0.75,0.7502,0.7498,0.747,0.7469,0.7469,0.7469,0,0.805,0.8041,0.8002,0.7959,0.7926,0.789,0.7853,0.7832,0.7801,0.7767,0.7716,0.7683,0.7616,0.7562,0.7508,0.7478,0.7467,0.7464,0.7453,0.7458,0.7471,0.7462,0.7545,0.7465,0.7465,0.7465,0.7466,0.7466,0.8007,0.7976,0.794,0.7896,0.7868,0.7835,0.7801,0.7775,0.7733,0.768,0.7667,0.7613,0.7569,0.7495,0.7464,0.7419,0.7422,0.7408,0.7403,0.74,0.7399,0.7481,0.7409,0.7409,0.7409,0.7409,0.7409,0,0.794,0.7917,0.7878,0.783,0.7796,0.7795,0.7754,0.7724,0.7678,0.764,0.76,0.754,0.7489,0.745,0.7397,0.7368,0.7361,0.7354,0.7355,0.7348,0.7399,0.7413,0.7361,0.7361,0.7361,0.7361,0.7361,0.7361,0.7901,0.785,0.7836,0.7769,0.7745,0.7696,0.7673,0.7641,0.7611,0.7547,0.7507,0.7483,0.7444,0.7388,0.7341,0.733,0.731,0.7304,0.7292,0.7339,0.7345,0.7349,0.7362,0.73,0.73,0.7244,0.7244,0.7243]}]]